Location: Saratoga Springs
(43.0831°N, 73.7850°W)
Time: 12:42:08
(UTC-04:00)

Transit 4A - Pass Details

Date: 19 April 2024
Orbit: 871 x 971 km, 66.8° (Epoch: 20 May)

Event Time Altitude Azimuth Distance (km) Brightness Sun altitude
Rises 23:20:12 0° 322° (NW) 3,467 12.0 -31.2°
Reaches altitude 10° 23:22:47 10° 316° (NW) 2,527 11.0 -31.4°
Enters shadow 23:27:22 38° 268° (W) 1,303 8.7 -31.8°
